Tracking 30260 objects as of 14-Feb-2025
HD Live streaming from Space Station
objects crossing your sky now

CZ-4 DEB

Track CZ-4 DEB now!
10-day predictions


NORAD ID: 37612
Int'l Code: 1990-081CY
Perigee: 707.4 km
Apogee: 751.1 km
Inclination: 98.3 °
Period: 99.2 minutes
Semi major axis: 7100 km
RCS: 0.0126 m2 (small)
Launch date: September 3, 1990
Source: People's Republic of China (PRC)
Launch site: Taiyaun Space Center, China (TSC)

Note: This is SATELLITE DEBRIS
Your satellite tracking list
Your tracking list is empty




NASA's NSSDC Master Catalog

Two Line Element Set (TLE):
1 37612U 90081CY  25043.38040299  .00005042  00000-0  12757-2 0  9991
2 37612  98.3163  84.2263 0030737 221.8510 153.1973 14.51078243612772
Source of the keplerian elements: AFSPC